Hourly Data Report for January 09, 2020

SATURNA ISLAND CS
BRITISH COLUMBIA
Current Station Operator: ECCC - MSC

48°47'02.067" N
123°02'41.082" W
24.40 m
1017101
71473
WEZ

Download Data

Hourly Data (January 2020)
Hourly Data Report for January 9, 2020
TIME
LST
Temp Definition
°C
Dew Point Definition
°C
Rel Hum Definition
%
Precip. Amount Definition
mm

Wind Dir Definition
10's deg

Wind Spd Definition
km/h
Visibility Definition
km
Stn Press Definition
kPa
Hmdx Definition


Wind Chill Definition


Weather Definition


00:00 3.0 -0.1 80 0.0 29 3   101.16     LegendNANA
01:00 3.0 -0.4 79 0.0 30 3   101.18     LegendNANA
02:00 3.2 0.2 81 0.0 29 4   101.27     LegendNANA
03:00 3.5 0.6 82 0.0 27 3   101.37     LegendNANA
04:00 3.5 0.8 82 0.0 29 1   101.40     LegendNANA
05:00 3.5 0.9 83 0.0 26 2   101.44     LegendNANA
06:00 3.5 0.8 83 0.0 35 2   101.53     LegendNANA
07:00 2.9 0.5 85 0.0 29 5   101.61     LegendNANA
08:00 2.7 0.9 88 0.2 26 3   101.68     LegendNANA
09:00 4.3 0.8 78 0.0 31 5   101.78     LegendNANA
10:00 4.3 0.5 76 0.0 29 5   101.86     LegendNANA
11:00 4.5 0.5 75 0.0 31 4   101.91     LegendNANA
12:00 5.5 -0.1 67 0.0 30 4   101.85     LegendNANA
13:00 5.7 -0.4 65 0.0 29 5   101.86     LegendNANA
14:00 5.1 -0.7 66 0.0 27 2   101.87     LegendNANA
15:00 4.8 -0.5 68 0.0 28 2   101.93     LegendNANA
16:00 4.7 -0.3 70 0.0 21 14   101.96     LegendNANA
17:00 4.9 -0.2 69 0.0 19 18   101.99     LegendNANA
18:00 4.9 0.1 71 0.0 19 21   101.97     LegendNANA
19:00 4.9 1.0 76 0.0 19 22   101.95     LegendNANA
20:00 4.8 0.2 72 0.0 20 20   101.92     LegendNANA
21:00 4.7 1.9 82 0.0 19 25   101.91     LegendNANA
22:00 4.7 1.9 82 0.0 16 23   101.90     LegendNANA
23:00 4.5 2.1 84 0.0 17 30   101.86     LegendNANA

Notes on Data Quality.

Legend

  • E = Estimated
  • M = Missing
  • NA = Not Available*
  • [empty] = Indicates an unobserved value
Date modified: